Date_and_time,latitude,longitude,wind_speed,RelWindDirFrom,WindDirFrom,air_pressure,air_temperature,relative_humidity,Temp,platform_speed_wrt_ground,air_pressure_at_mean_sea_level,platform_orientation
2018-05-09 00:00,50.6303966666667,-96.9807566666667,8.0,9.2,14,987.87,12.1,27,7.77,0.0,1014.63,166.7
2018-05-09 00:10,50.6304016666667,-96.9807583333333,8.4,9.6,15,987.73,11.0,31,7.50,0.0,1014.51,166.7
2018-05-09 00:20,50.6304033333333,-96.9807633333333,7.4,8.3,15,987.64,9.7,35,7.40,0.0,1014.50,166.7
2018-05-09 00:30,50.6304066666667,-96.9807683333333,6.8,7.5,18,987.58,9.3,37,7.62,0.0,1014.43,166.7
2018-05-09 00:40,50.6304316666667,-96.9807683333333,4.6,6.1,24,987.60,8.6,42,7.60,0.0,1014.46,166.7
2018-05-09 00:50,50.6304366666667,-96.9807783333333,4.2,5.2,29,987.60,7.7,45,7.42,0.0,1014.49,166.7
2018-05-09 01:00,50.6304583333333,-96.98077,3.4,4.8,31,987.49,7.6,46,7.25,0.0,1014.40,14.5
2018-05-09 01:10,50.6304466666667,-96.9807783333333,2.3,3.2,37,987.45,7.9,44,7.15,0.0,1014.34,14.5
2018-05-09 01:20,50.6304466666667,-96.98077,2.7,4.0,31,987.40,7.6,46,7.08,0.0,1014.25,14.5
2018-05-09 01:30,50.63041,-96.9807783333333,2.8,4.2,39,987.28,7.5,45,7.05,0.0,1014.16,14.5
2018-05-09 01:40,50.6304333333333,-96.9807683333333,2.2,3.1,25,987.28,7.5,44,7.06,0.0,1014.18,14.5
2018-05-09 01:50,50.6304233333333,-96.9807583333333,2.9,3.6,16,987.22,7.3,44,7.10,0.0,1014.10,14.5
2018-05-09 02:00,50.6304333333333,-96.9807783333333,3.0,3.8,8,987.17,7.4,42,7.29,0.0,1014.09,315.5
2018-05-09 02:10,50.6304366666667,-96.98077,4.0,4.6,19,987.11,7.9,40,7.39,0.0,1014.07,315.5
2018-05-09 02:20,50.6304266666667,-96.980755,4.3,4.9,25,986.98,8.6,39,7.28,0.0,1013.92,315.5
2018-05-09 02:30,50.6304533333333,-96.9807733333333,3.9,4.4,28,986.88,8.7,40,7.19,0.0,1013.85,315.5
2018-05-09 02:40,50.6304433333333,-96.9807666666667,3.5,4.2,30,986.88,8.4,42,7.16,0.0,1013.90,315.5
2018-05-09 02:50,50.6304416666667,-96.9807666666667,2.5,3.4,56,986.80,8.3,43,7.19,0.0,1013.84,315.5
2018-05-09 03:00,50.63044,-96.9807733333333,2.3,5.0,93,986.70,8.0,45,7.23,0.0,1013.74,342.2
2018-05-09 03:10,50.63043,-96.9807633333333,2.5,4.8,123,986.64,7.4,50,7.38,0.0,1013.72,342.2
2018-05-09 03:20,50.6304266666667,-96.9807716666667,2.7,3.8,146,986.60,6.3,54,7.42,0.0,1013.74,342.2
2018-05-09 03:30,50.630425,-96.9807716666667,5.9,8.7,139,986.53,6.7,59,7.35,0.0,1013.64,342.2
2018-05-09 03:40,50.6304133333333,-96.9807733333333,6.2,7.4,144,986.52,6.2,66,7.30,0.0,1013.67,342.2
2018-05-09 03:50,50.6304266666667,-96.9807683333333,4.8,6.3,144,986.52,5.0,74,7.30,0.0,1013.71,342.2
2018-05-09 04:00,50.6304283333333,-96.9807783333333,5.6,7.6,158,986.41,4.7,76,7.32,0.0,1013.60,194.5
2018-05-09 04:10,50.6304366666667,-96.9807616666667,7.3,9.1,158,986.33,5.4,75,7.31,0.0,1013.44,194.5
2018-05-09 04:20,50.63043,-96.9807716666667,8.8,10.5,153,986.24,5.9,73,7.33,0.0,1013.32,194.5
2018-05-09 04:30,50.6304283333333,-96.9807733333333,7.5,9.3,156,986.08,5.8,75,7.41,0.0,1013.18,194.5
2018-05-09 04:40,50.630445,-96.9807666666667,9.3,11.7,166,985.92,6.3,77,7.49,0.0,1012.99,194.5
2018-05-09 04:50,50.630445,-96.98077,8.8,10.3,168,985.89,7.0,78,7.50,0.0,1012.95,194.5
2018-05-09 05:00,50.6304516666667,-96.98077,10.1,11.7,166,985.78,7.1,77,7.49,0.0,1012.85,27.4
2018-05-09 05:10,50.630445,-96.9807466666667,9.7,11.4,167,985.68,7.1,78,7.49,0.0,1012.80,27.4
2018-05-09 05:20,50.63044,-96.9807566666667,8.6,9.5,167,985.53,6.6,81,7.53,0.0,1012.66,27.4
2018-05-09 05:30,50.6304383333333,-96.980755,7.6,8.6,164,985.35,6.5,81,7.54,0.0,1012.51,27.4
2018-05-09 05:40,50.6304383333333,-96.98076,8.3,9.6,170,985.29,6.7,81,7.55,0.0,1012.50,27.4
2018-05-09 05:50,50.6304366666667,-96.98076,9.5,11.0,165,985.16,7.2,78,7.58,0.0,1012.34,27.4
2018-05-09 06:00,50.630435,-96.9807566666667,8.7,10.0,166,985.04,7.1,80,7.62,0.0,1012.19,125.3
2018-05-09 06:10,50.63042,-96.98077,8.0,9.6,168,984.93,6.6,82,7.63,0.0,1012.08,125.3
2018-05-09 06:20,50.630435,-96.9807683333333,8.2,8.9,165,984.76,6.6,84,7.64,0.0,1011.91,125.3
2018-05-09 06:30,50.630435,-96.9807666666667,7.9,8.8,165,984.65,6.6,86,7.64,0.0,1011.78,125.3
2018-05-09 06:40,50.6304383333333,-96.9807916666667,7.8,9.1,168,984.48,6.5,85,7.63,0.0,1011.57,125.3
2018-05-09 06:50,50.6304366666667,-96.9807683333333,8.5,10.1,164,984.28,6.7,84,7.62,0.0,1011.35,125.3
2018-05-09 07:00,50.6304366666667,-96.9807883333333,9.3,10.6,161,984.03,6.9,84,7.62,0.0,1011.08,345.5
2018-05-09 07:10,50.630435,-96.98077,9.1,10.7,166,983.96,7.0,86,7.62,0.0,1011.03,345.5
2018-05-09 07:20,50.63044,-96.9807633333333,9.2,11.6,166,983.89,7.4,87,7.63,0.0,1010.94,345.5
2018-05-09 07:30,50.63044,-96.9807616666667,9.6,12.9,164,983.78,7.6,88,7.63,0.0,1010.82,345.5
2018-05-09 07:40,50.6304383333333,-96.9807616666667,8.6,10.2,164,983.72,7.4,90,7.63,0.0,1010.73,345.5
2018-05-09 07:50,50.6304383333333,-96.98076,6.8,8.1,174,983.67,6.9,92,7.62,0.0,1010.71,345.5
2018-05-09 08:00,50.6304366666667,-96.9807566666667,7.8,8.5,174,983.50,7.1,91,7.60,0.0,1010.55,360.0
2018-05-09 08:10,50.63044,-96.980765,7.6,8.8,180,983.43,7.0,91,7.58,0.0,1010.49,360.0
2018-05-09 08:20,50.6304333333333,-96.9807566666667,7.2,8.1,188,983.41,6.6,94,7.57,0.0,1010.49,360.0
2018-05-09 08:30,50.630435,-96.9807583333333,7.4,8.6,187,983.32,6.7,94,7.54,0.0,1010.39,360.0
2018-05-09 08:40,50.6304333333333,-96.9807566666667,7.7,9.1,186,983.20,6.9,93,7.52,0.0,1010.25,360.0
2018-05-09 08:50,50.6304316666667,-96.980755,8.1,9.7,186,983.02,6.9,93,7.51,0.0,1010.06,360.0
2018-05-09 09:00,50.6304316666667,-96.980755,8.6,9.6,180,982.86,7.0,94,7.51,0.0,1009.89,142.0
2018-05-09 09:10,50.6304316666667,-96.980755,7.9,9.0,184,982.80,6.7,96,7.50,0.0,1009.82,142.0
2018-05-09 09:20,50.6304316666667,-96.9807533333333,7.7,8.8,184,982.70,6.6,98,7.50,0.0,1009.71,142.0
2018-05-09 09:30,50.6304466666667,-96.98074,9.2,10.6,184,982.61,6.5,99,7.49,0.0,1009.63,142.0
2018-05-09 09:40,50.6304333333333,-96.98075,9.5,11.0,183,982.38,6.5,99,7.48,0.0,1009.41,142.0
2018-05-09 09:50,50.6304333333333,-96.9807533333333,9.8,11.1,179,982.18,6.5,99,7.48,0.0,1009.21,142.0
2018-05-09 10:00,50.6304383333333,-96.9807516666667,8.8,10.1,179,982.08,6.2,100,7.48,0.0,1009.12,78.2
2018-05-09 10:10,50.6304016666667,-96.9807666666667,8.6,10.5,178,982.01,6.2,100,7.48,0.0,1009.06,78.2
2018-05-09 10:20,50.6304483333333,-96.980745,10.1,13.6,179,981.92,6.0,100,7.48,0.0,1008.98,78.2
2018-05-09 10:30,50.6304483333333,-96.9807516666667,10.9,12.6,176,981.84,5.9,101,7.45,0.0,1008.89,78.2
2018-05-09 10:40,50.630445,-96.9807483333333,9.8,12.2,182,981.91,6.0,101,7.43,0.0,1008.96,78.2
2018-05-09 10:50,50.6304433333333,-96.9807483333333,10.1,14.2,188,981.93,6.3,102,7.41,0.0,1008.97,78.2
2018-05-09 11:00,50.6304416666667,-96.98075,10.6,16.4,190,981.88,6.5,102,7.38,0.0,1008.91,48.3
2018-05-09 11:10,50.6304433333333,-96.98075,11.9,15.7,199,981.88,6.9,102,7.34,0.0,1008.89,48.3
2018-05-09 11:20,50.630445,-96.9807533333333,11.3,14.9,196,981.67,6.8,102,7.29,0.0,1008.70,48.3
2018-05-09 11:30,50.630445,-96.9807533333333,10.4,15.7,201,981.61,6.6,102,7.27,0.0,1008.64,48.3
2018-05-09 11:40,50.630445,-96.980755,11.3,14.6,195,981.36,6.5,102,7.27,0.0,1008.39,48.3
2018-05-09 11:50,50.630445,-96.980755,9.5,13.1,193,981.28,6.3,102,7.26,0.0,1008.34,48.3
2018-05-09 12:00,50.630445,-96.980755,9.8,14.0,192,981.18,6.2,102,7.26,0.0,1008.24,38.0
2018-05-09 12:10,50.630445,-96.9807566666667,11.9,16.1,186,981.13,6.2,102,7.26,0.0,1008.19,38.0
2018-05-09 12:20,50.6304466666667,-96.9807633333333,10.8,14.8,190,981.11,6.3,103,7.27,0.0,1008.17,38.0
2018-05-09 12:30,50.63044,-96.98076,9.4,12.9,200,981.17,6.7,103,7.27,0.0,1008.20,38.0
2018-05-09 12:40,50.63044,-96.9807583333333,9.6,13.3,190,981.01,6.6,103,7.27,0.0,1008.04,38.0
2018-05-09 12:50,50.6304416666667,-96.9807566666667,8.6,11.0,199,981.05,6.9,103,7.26,0.0,1008.05,38.0
2018-05-09 13:00,50.63042,-96.9807683333333,8.8,12.4,195,981.03,6.9,103,7.25,0.0,1008.01,194.5
2018-05-09 13:10,50.6304516666667,-96.9807733333333,10.1,13.0,198,980.83,7.1,103,7.25,0.0,1007.80,194.5
2018-05-09 13:20,50.63045,-96.9807616666667,9.6,12.1,189,980.52,7.3,103,7.25,0.0,1007.48,194.5
2018-05-09 13:30,50.63045,-96.980755,10.6,13.7,189,980.49,7.2,103,7.26,0.0,1007.46,194.5
2018-05-09 13:40,50.6304466666667,-96.980755,8.4,13.3,197,980.68,7.4,102,7.27,0.0,1007.66,194.5
2018-05-09 13:50,50.6304566666667,-96.9807533333333,9.3,12.3,200,980.60,7.6,102,7.26,0.0,1007.57,194.5
2018-05-09 14:00,50.6304516666667,-96.9807566666667,8.8,11.2,200,980.52,7.7,102,7.22,0.0,1007.48,360.0
2018-05-09 14:10,50.6304516666667,-96.980755,9.2,11.1,206,980.44,8.1,102,7.17,0.0,1007.37,360.0
2018-05-09 14:20,50.63045,-96.980755,9.6,13.4,224,980.64,8.5,101,7.16,0.0,1007.54,360.0
2018-05-09 14:30,50.63045,-96.98076,8.1,10.9,215,980.68,8.6,101,7.13,0.0,1007.58,360.0
2018-05-09 14:40,50.6304483333333,-96.9807583333333,8.2,12.2,212,980.68,8.6,101,7.06,0.0,1007.58,360.0
2018-05-09 14:50,50.6304483333333,-96.9807566666667,5.7,9.0,241,980.78,9.1,101,6.94,0.0,1007.64,360.0
2018-05-09 15:00,50.6304466666667,-96.980755,6.2,9.8,262,980.97,9.5,101,6.84,0.0,1007.81,360.0
2018-05-09 15:10,50.6304466666667,-96.9807533333333,5.5,9.0,272,980.98,9.8,101,6.75,0.0,1007.81,360.0
2018-05-09 15:20,50.6304383333333,-96.9807366666667,6.1,9.4,265,981.10,10.2,100,6.71,0.0,1007.91,360.0
2018-05-09 15:30,50.6304333333333,-96.98074,5.0,8.0,263,981.11,10.7,100,6.80,0.0,1007.88,360.0
2018-05-09 15:40,50.6304383333333,-96.9807433333333,4.8,9.4,260,981.01,11.5,99,6.77,0.0,1007.74,360.0
2018-05-09 15:50,50.6304366666667,-96.980745,3.7,8.0,267,980.89,12.4,94,6.79,0.0,1007.56,360.0
2018-05-09 16:00,50.6304366666667,-96.98075,16.6,37.4,354,980.66,11.3,87,6.83,0.0,1007.36,32.5
2018-05-09 16:10,50.6304333333333,-96.98075,26.1,31.6,24,981.33,5.8,83,6.84,0.0,1008.29,32.5
2018-05-09 16:20,50.6304366666667,-96.9807616666667,21.1,25.0,29,981.92,4.8,84,6.80,0.0,1008.95,32.5
2018-05-09 16:30,50.630435,-96.9807533333333,19.8,23.4,22,982.04,4.0,86,6.90,0.0,1009.11,32.5
2018-05-09 16:40,50.6304316666667,-96.980755,17.2,20.7,13,982.30,3.6,89,7.18,0.0,1009.37,32.5
2018-05-09 16:50,50.630445,-96.9807566666667,14.7,23.3,20,982.49,3.4,90,7.26,0.0,1009.56,32.5
2018-05-09 17:00,50.6304383333333,-96.980765,19.0,23.0,4,982.43,6.0,64,7.26,0.0,1009.36,194.5
2018-05-09 17:10,50.6304383333333,-96.9807616666667,17.0,21.6,6,982.68,5.5,69,7.25,0.0,1009.61,194.5
2018-05-09 17:20,50.6304283333333,-96.9807633333333,17.4,22.0,7,982.81,5.2,70,7.14,0.0,1009.74,194.5
2018-05-09 17:30,50.630435,-96.9807616666667,16.6,24.0,6,982.95,5.2,69,7.00,0.0,1009.84,194.5
2018-05-09 17:40,50.6304333333333,-96.9807566666667,20.4,26.2,2,982.91,6.0,57,6.87,0.0,1009.72,194.5
2018-05-09 17:50,50.6304333333333,-96.9807566666667,18.6,24.9,0,983.16,6.6,52,6.57,0.0,1010.00,194.5
2018-05-09 18:00,50.630435,-96.9807566666667,19.8,31.2,4,983.24,6.7,49,6.40,0.0,1010.34,360.0
2018-05-09 18:10,50.630435,-96.9807566666667,16.7,23.4,360,983.47,6.9,47,6.36,0.0,1010.62,360.0
2018-05-09 18:20,50.630435,-96.9807566666667,16.5,22.0,6,983.61,6.9,48,6.31,0.0,1010.80,360.0
2018-05-09 18:30,50.6304383333333,-96.9807,18.4,22.5,8,983.64,5.9,52,6.31,0.0,1010.90,360.0
2018-05-09 18:40,50.6304333333333,-96.9807516666667,19.2,25.0,9,983.69,5.7,51,6.26,0.0,1010.98,360.0
2018-05-09 18:50,50.6304333333333,-96.9807583333333,17.0,22.0,15,983.81,5.5,55,6.28,0.0,1010.98,360.0
2018-05-09 19:00,50.6304333333333,-96.9807616666667,17.5,22.1,24,983.78,4.7,60,6.31,0.0,1011.01,228.3
2018-05-09 19:10,50.6304333333333,-96.98077,15.8,25.1,14,984.02,5.0,58,6.36,0.0,1011.26,228.3
2018-05-09 19:20,50.63043,-96.980765,18.0,26.8,5,984.13,5.8,52,6.60,0.0,1011.33,228.3
2018-05-09 19:30,50.63043,-96.9807633333333,16.7,24.9,2,984.18,6.1,51,6.79,0.0,1011.32,228.3
2018-05-09 19:40,50.6304333333333,-96.9807666666667,17.5,22.2,11,984.31,5.7,57,6.87,0.0,1011.45,228.3
2018-05-09 19:50,50.63043,-96.980765,18.5,26.8,10,984.38,5.0,58,6.92,0.0,1011.55,228.3
2018-05-09 20:00,50.63043,-96.9807583333333,14.8,22.4,5,984.67,5.1,57,6.94,0.0,1011.84,360.0
2018-05-09 20:10,50.63044,-96.9807866666667,16.4,23.7,8,984.81,4.9,58,6.77,0.0,1011.99,360.0
2018-05-09 20:20,50.6304316666667,-96.9807666666667,16.5,21.4,9,984.97,4.2,63,6.41,0.0,1012.24,360.0
2018-05-09 20:30,50.6304283333333,-96.9807666666667,18.1,28.1,11,985.03,5.2,54,6.37,0.0,1012.26,360.0
2018-05-09 20:40,50.63043,-96.9807666666667,18.8,28.6,13,985.10,5.4,54,6.57,0.0,1012.33,360.0
2018-05-09 20:50,50.6304316666667,-96.9807666666667,17.3,26.7,354,985.03,6.8,43,6.67,0.0,1012.23,360.0
2018-05-09 21:00,50.6304333333333,-96.9807666666667,17.5,21.8,19,985.36,5.3,59,6.86,0.0,1012.63,228.3
2018-05-09 21:10,50.6304333333333,-96.9807666666667,19.5,23.5,22,985.32,4.5,60,6.93,0.0,1012.59,228.3
2018-05-09 21:20,50.6304333333333,-96.9807666666667,18.3,23.0,18,985.42,4.1,63,6.92,0.0,1012.70,228.3
2018-05-09 21:30,50.6304333333333,-96.980765,18.8,23.5,14,985.52,4.0,62,6.83,0.0,1012.82,228.3
2018-05-09 21:40,50.6304333333333,-96.980765,18.7,24.3,8,985.65,5.8,47,6.96,0.0,1012.90,228.3
2018-05-09 21:50,50.6304333333333,-96.980765,18.9,27.3,356,985.47,8.6,34,7.04,0.0,1012.58,228.3
2018-05-09 22:00,50.6304266666667,-96.9807733333333,17.5,26.2,340,985.47,9.7,30,6.97,0.0,1012.53,234.7
2018-05-09 22:10,50.6304166666667,-96.9807583333333,17.9,26.7,333,985.49,9.9,29,6.90,0.0,1012.58,234.7
2018-05-09 22:20,50.63042,-96.980755,19.1,28.3,6,985.87,8.5,39,6.81,0.0,1012.99,234.7
2018-05-09 22:30,50.63042,-96.9807516666667,18.4,25.1,11,986.20,5.2,55,6.57,0.0,1013.48,234.7
2018-05-09 22:40,50.6304233333333,-96.9807533333333,19.1,25.5,14,986.30,4.7,57,6.44,0.0,1013.54,234.7
2018-05-09 22:50,50.630425,-96.9807566666667,17.1,21.9,16,986.46,4.7,55,6.49,0.0,1013.78,234.7
2018-05-09 23:00,50.6304233333333,-96.9807566666667,16.6,27.9,354,986.53,6.8,40,6.84,0.0,1013.79,90.0
2018-05-09 23:10,50.6304233333333,-96.9807583333333,18.7,26.0,352,986.37,8.3,34,6.86,0.0,1013.56,90.0
2018-05-09 23:20,50.630425,-96.9807583333333,15.5,22.3,354,986.63,8.5,36,6.77,0.0,1013.83,90.0
2018-05-09 23:30,50.630425,-96.9807883333333,20.4,29.1,357,986.54,7.6,39,6.84,0.0,1013.69,90.0
2018-05-09 23:40,50.6304183333333,-96.9807783333333,17.1,24.8,351,986.76,7.8,37,6.88,0.0,1013.77,90.0
